Voltar ao catálogo

STARLINK-32276

AtivoComunicaçõesVLEO
NORAD 60944·PAYLOAD·🇺🇸 United States

Lançado Aug 31, 2024 de Vandenberg Space Force Base

Loading…

Próximas Passagens (próximas 24 horas)

TLE

AtualizadoSource: CelesTrak SupGP

Época: Sep 15, 2026, 02:00 UTC

1 60944C 24155W   26258.08381944  .00062949  00000+0  18596-2 0  2588
2 60944  53.1594 327.2339 0001117  87.4137   6.2122 15.34362682    15

Acompanhe STARLINK-32276 em tempo real com AllMySat

Download on the App Store